Location: Sternwarte Hubelmatt
(47.0367°N, 8.3053°E)
Time: 23:21:19
(UTC+01:00)

Tiangong - Visible Passes

Search period start: 29 November 2023 00:00
Search period end: 09 December 2023 00:00
Orbit: 374 x 384 km, 41.5° (Epoch: 29 November)

Date Brightness Start Highest point End Pass type
(mag) Time Alt. Az. Time Alt. Az. Time Alt. Az.
29 Nov 0.0 18:36:12 10° WSW 18:38:37 20° SSW 18:39:36 17° S visible
30 Nov -0.1 17:34:36 10° WSW 17:37:16 25° S 17:39:56 10° SE visible
30 Nov 1.0 19:12:33 10° SW 19:13:20 11° SSW 19:13:24 11° SSW visible
01 Dec 0.7 18:10:01 10° WSW 18:12:00 16° SSW 18:13:59 10° SSE visible
02 Dec 0.4 17:08:05 10° WSW 17:10:32 21° SSW 17:12:59 10° SE visible
03 Dec 1.0 17:43:57 10° SW 17:45:01 11° SSW 17:46:05 10° S visible
